TimeCDT,TemperatureF,Dew PointF,Humidity,Sea Level PressureIn,VisibilityMPH,Wind Direction,Wind SpeedMPH,Gust SpeedMPH,PrecipitationIn,Events,Conditions,WindDirDegrees,DateUTC
12:12 AM,19.0,12.9,77,29.57,7.0,WNW,27.6,41.4,0.00,,Overcast,300,2013-03-18 05:12:00
12:52 AM,17.1,10.9,77,29.68,9.0,WNW,27.6,39.1,0.00,,Overcast,290,2013-03-18 05:52:00
1:44 AM,14.0,7.0,74,29.63,9.0,WNW,20.7,41.4,0.00,,Overcast,300,2013-03-18 06:44:00
1:52 AM,12.9,6.1,74,29.73,8.0,NW,31.1,44.9,0.00,,Overcast,310,2013-03-18 06:52:00
2:52 AM,12.9,6.1,74,29.77,7.0,NW,26.5,40.3,0.00,,Overcast,310,2013-03-18 07:52:00
3:52 AM,10.9,3.0,70,29.80,10.0,NW,24.2,43.7,0.00,,Overcast,320,2013-03-18 08:52:00
4:52 AM,10.0,-0.0,64,29.83,10.0,NW,26.5,42.6,N/A,,Scattered Clouds,320,2013-03-18 09:52:00
4:59 AM,10.0,1.9,70,29.73,7.0,NW,25.3,36.8,0.00,,Mostly Cloudy,310,2013-03-18 09:59:00
5:52 AM,8.1,-0.0,70,29.85,10.0,NW,25.3,33.4,0.00,,Overcast,310,2013-03-18 10:52:00
6:52 AM,8.1,-0.0,70,29.88,8.0,NW,20.7,31.1,N/A,,Overcast,310,2013-03-18 11:52:00
7:18 AM,7.0,-0.9,70,29.80,10.0,NW,23.0,34.5,N/A,,Overcast,310,2013-03-18 12:18:00
7:52 AM,7.0,-0.9,70,29.91,10.0,WNW,18.4,29.9,N/A,,Overcast,300,2013-03-18 12:52:00
8:52 AM,7.0,-0.9,70,29.93,10.0,WNW,18.4,31.1,N/A,,Overcast,300,2013-03-18 13:52:00
9:52 AM,9.0,-0.0,67,29.95,10.0,NW,28.8,40.3,N/A,,Overcast,320,2013-03-18 14:52:00
10:52 AM,10.9,-0.0,61,29.97,10.0,NW,25.3,36.8,N/A,,Scattered Clouds,320,2013-03-18 15:52:00
11:14 AM,10.9,-0.0,61,29.89,10.0,NW,32.2,40.3,N/A,,Mostly Cloudy,320,2013-03-18 16:14:00
11:31 AM,10.9,-0.0,61,29.89,10.0,NW,24.2,39.1,N/A,,Scattered Clouds,320,2013-03-18 16:31:00
11:52 AM,10.9,1.0,64,29.99,10.0,NNW,25.3,35.7,N/A,,Mostly Cloudy,330,2013-03-18 16:52:00
12:13 PM,12.9,1.0,59,29.91,10.0,NNW,24.2,35.7,N/A,,Scattered Clouds,330,2013-03-18 17:13:00
12:52 PM,14.0,1.0,56,30.01,10.0,NNW,26.5,40.3,N/A,,Clear,330,2013-03-18 17:52:00
1:52 PM,15.1,3.0,59,30.04,10.0,NW,20.7,38.0,N/A,,Clear,310,2013-03-18 18:52:00
2:52 PM,17.1,3.0,54,30.03,10.0,NW,28.8,36.8,N/A,,Clear,320,2013-03-18 19:52:00
3:52 PM,18.0,3.0,52,30.04,10.0,NW,21.9,29.9,N/A,,Clear,310,2013-03-18 20:52:00
4:52 PM,18.0,3.9,54,30.05,10.0,NW,13.8,27.6,N/A,,Clear,320,2013-03-18 21:52:00
5:52 PM,19.0,3.9,52,30.06,10.0,NNW,16.1,25.3,N/A,,Clear,330,2013-03-18 22:52:00
6:52 PM,17.1,3.0,54,30.06,10.0,NNW,13.8,20.7,N/A,,Clear,330,2013-03-18 23:52:00
7:52 PM,15.1,1.9,56,30.07,10.0,NNW,10.4,-,N/A,,Clear,330,2013-03-19 00:52:00
8:52 PM,12.9,1.9,62,30.09,10.0,NNW,4.6,-,N/A,,Clear,330,2013-03-19 01:52:00
9:52 PM,10.9,1.0,64,30.10,10.0,NW,6.9,-,N/A,,Clear,320,2013-03-19 02:52:00
10:52 PM,10.0,1.0,67,30.12,10.0,North,3.5,-,N/A,,Clear,360,2013-03-19 03:52:00
11:52 PM,5.0,-0.4,78,30.01,10.0,Calm,Calm,-,N/A,,Clear,0,2013-03-19 04:52:00